This is the latest recevied weather packets stored in our database for station/object LA1HSA-13. If no packets are shown the sender has not sent any weather packets the latest 10 day(s).
| Time | Temp. | Humidity | Pressure | Rain* | Wind** | Luminosity | Snow |
|---|---|---|---|---|---|---|---|
| 1777735804 | 13.89° C | 50% | 1009.5 hPa | 0 mm | - | - | - |
| 1777735203 | 14.44° C | 45% | 1009.6 hPa | 0 mm | - | - | - |
| 1777734603 | 15.56° C | 41% | 1009.3 hPa | 0 mm | - | - | - |
| 1777734003 | 16.11° C | 42% | 1009.6 hPa | 0 mm | - | - | - |
| 1777733403 | 16.67° C | 41% | 1009.5 hPa | 0 mm | - | - | - |
| 1777732803 | 16.67° C | 40% | 1009.5 hPa | 0 mm | - | - | - |
| 1777732203 | 17.22° C | 38% | 1009.6 hPa | 0 mm | - | - | - |
| 1777731603 | 16.67° C | 37% | 1009.9 hPa | 0 mm | - | - | - |
| 1777731003 | 17.22° C | 38% | 1009.8 hPa | 0 mm | - | - | - |
| 1777730403 | 17.78° C | 41% | 1009.6 hPa | 0 mm | - | - | - |
| 1777729803 | 17.78° C | 42% | 1010 hPa | 0 mm | - | - | - |
| 1777729203 | 16.67° C | 44% | 1010 hPa | 0 mm | - | - | - |
| 1777728603 | 16.67° C | 42% | 1010.1 hPa | 0 mm | - | - | - |
| 1777728003 | 16.67° C | 43% | 1010.2 hPa | 0 mm | - | - | - |
| 1777727403 | 16.67° C | 44% | 1010.4 hPa | 0 mm | - | - | - |
| 1777726803 | 16.67° C | 42% | 1010.4 hPa | 0 mm | - | - | - |
| 1777726204 | 16.67° C | 39% | 1010.5 hPa | 0 mm | - | - | - |
| 1777725603 | 16.67° C | 41% | 1010.3 hPa | 0 mm | - | - | - |
| 1777725003 | 17.22° C | 38% | 1010.5 hPa | 0 mm | - | - | - |
| 1777724403 | 16.67° C | 38% | 1010.7 hPa | 0 mm | - | - | - |
| 1777723803 | 17.22° C | 40% | 1010.5 hPa | 0 mm | - | - | - |
| 1777723203 | 17.22° C | 38% | 1010.9 hPa | 0 mm | - | - | - |
| 1777722603 | 16.67° C | 38% | 1010.8 hPa | 0 mm | - | - | - |
| 1777722003 | 16.67° C | 41% | 1010.7 hPa | 0 mm | - | - | - |
| 1777721403 | 16.67° C | 39% | 1011.1 hPa | 0 mm | - | - | - |
* Rain latest hour (hover to see other rain measurements)
** Current wind speed in m/s (hover to see current wind gust speed)